Date,TemperatureHighF,TemperatureAvgF,TemperatureLowF,DewpointHighF,DewpointAvgF,DewpointLowF,HumidityHigh,HumidityAvg,HumidityLow,PressureMaxIn,PressureMinIn,WindSpeedMaxMPH,WindSpeedAvgMPH,GustSpeedMaxMPH,PrecipitationSumIn
2012-1-1,59,52,46,39,32,32,68,41,29,30.03,29.97,4,1,5,0.00
2012-1-2,61,53,48,46,42,34,82,66,37,30.18,30.00,3,0,4,0.00
2012-1-3,59,53,49,48,39,32,87,60,29,30.24,30.15,3,0,4,0.00
2012-1-4,64,55,48,43,34,32,80,43,23,30.27,30.15,3,0,5,0.00
2012-1-5,62,52,48,45,38,32,81,58,34,30.21,30.03,4,0,8,0.00
2012-1-6,57,50,44,48,38,32,86,64,36,30.09,29.97,3,0,3,0.00
2012-1-7,66,55,44,41,34,32,82,38,15,30.12,30.00,7,2,9,0.00
2012-1-8,64,56,49,32,32,32,19,17,16,30.12,30.03,4,0,6,0.00
2012-1-9,61,53,46,32,32,32,47,29,19,30.12,30.03,2,0,4,0.00
2012-1-10,62,52,45,32,32,32,53,36,21,30.06,29.94,3,0,3,0.00
2012-1-11,62,52,45,32,32,32,53,33,19,30.03,29.88,2,0,4,0.00
2012-1-12,63,53,44,32,32,32,52,27,16,30.00,29.91,4,0,8,0.00
2012-1-13,63,53,46,32,32,32,42,28,18,30.12,30.00,4,0,4,0.00
2012-1-14,61,51,44,36,32,32,60,33,19,30.09,29.97,3,0,5,0.00
2012-1-15,55,49,42,39,33,32,72,42,28,30.03,29.88,5,1,8,0.00
2012-1-16,50,44,39,32,32,32,35,27,19,30.18,30.03,4,1,4,0.00
2012-1-17,50,44,37,32,32,32,56,40,27,30.30,30.21,4,0,4,0.00
2012-1-18,58,47,40,36,32,32,75,49,25,30.30,30.15,0,0,0,0.00
2012-1-19,55,50,44,46,37,32,80,60,35,30.12,29.91,0,0,0,0.32
2012-1-20,59,56,51,55,50,46,89,80,72,29.91,29.59,3,0,4,2.81
2012-1-21,55,51,47,52,37,32,89,57,36,30.03,29.62,5,2,9,2.96
2012-1-22,54,51,46,46,37,32,78,59,43,30.03,29.68,0,0,0,0.48
2012-1-23,57,53,48,52,43,34,88,70,40,30.03,29.53,5,2,7,1.02
2012-1-24,60,53,47,48,37,32,85,57,30,30.30,30.03,3,0,5,0.00
2012-1-25,63,56,52,54,40,32,87,55,33,30.30,30.21,4,0,5,0.00
2012-1-26,63,57,51,54,47,39,84,71,42,30.24,30.12,4,0,8,0.00
2012-1-27,63,54,48,50,39,32,89,54,16,30.15,30.06,4,0,5,0.00
2012-1-28,62,52,44,32,32,32,44,27,16,30.18,30.09,5,1,7,0.00
2012-1-29,64,53,46,36,32,32,62,39,24,30.12,29.97,3,0,5,0.00
2012-1-30,62,54,49,46,37,32,79,52,34,29.97,29.88,4,0,4,0.00
2012-1-31,60,52,46,45,35,32,76,53,34,30.09,29.94,3,0,6,0.00
2012-2-1,61,54,46,48,38,32,78,57,35,30.15,30.06,4,0,4,0.00
2012-2-2,67,54,47,43,36,32,77,49,15,30.12,29.85,3,0,4,0.00
2012-2-3,60,52,47,45,34,32,89,47,17,29.94,29.85,6,1,6,0.00
2012-2-4,62,52,45,41,34,32,80,41,19,29.94,29.88,4,0,4,0.00
2012-2-5,66,55,47,32,32,32,46,28,15,29.97,29.85,4,0,5,0.00
2012-2-6,66,56,49,37,32,32,54,29,18,29.85,29.65,3,0,4,0.08
2012-2-7,60,56,53,45,37,32,69,50,34,29.97,29.62,2,0,4,0.20
2012-2-8,62,55,48,52,41,32,89,63,33,30.09,29.97,4,0,5,0.00
2012-2-9,66,54,49,48,39,32,88,58,23,30.12,30.00,5,1,5,0.00
2012-2-10,65,56,49,46,39,32,83,52,32,30.06,29.94,2,0,3,0.00
2012-2-11,60,53,48,48,41,32,88,67,37,29.94,29.88,4,1,7,0.00
2012-2-12,58,51,46,46,38,32,82,62,35,29.94,29.80,4,0,5,0.00
2012-2-13,56,50,46,45,35,32,79,55,36,29.88,29.77,5,2,10,1.54
2012-2-14,57,50,44,39,34,32,73,53,30,30.00,29.88,5,1,10,0.00
2012-2-15,57,51,43,45,33,32,77,30,17,30.06,29.94,6,2,8,0.40
2012-2-16,61,53,47,39,32,32,75,29,16,30.15,30.03,4,1,5,0.00
2012-2-17,59,52,46,48,42,34,91,73,39,30.12,30.03,4,1,8,0.00
2012-2-18,59,52,46,50,37,32,93,51,28,30.06,29.97,5,2,7,0.00
2012-2-19,53,48,42,32,32,32,54,40,26,30.00,29.91,3,0,4,0.00
2012-2-20,61,53,48,45,36,32,83,55,31,30.09,29.94,3,0,4,0.00
2012-2-21,66,55,48,46,39,32,83,58,26,30.21,30.09,0,0,4,0.00
2012-2-22,70,58,52,48,37,32,75,48,19,30.18,29.97,5,1,6,0.00
2012-2-23,70,59,49,39,34,32,67,35,14,29.97,29.85,5,1,8,0.00
2012-2-24,68,58,50,37,32,32,62,25,15,30.06,29.85,6,1,8,0.00
2012-2-25,57,50,46,34,32,32,55,30,20,30.18,30.03,6,2,8,0.00
2012-2-26,58,47,39,32,32,32,55,34,17,30.03,29.74,5,1,6,0.00
2012-2-27,53,46,40,32,32,32,58,38,27,29.83,29.68,4,1,6,0.00
2012-2-28,58,50,43,36,32,32,56,33,19,30.12,29.85,4,0,5,0.00
2012-2-29,60,52,47,46,37,32,84,55,29,30.12,29.91,4,0,6,0.91
2012-3-1,57,50,45,43,35,32,71,53,39,30.15,30.06,4,1,7,0.24
2012-3-2,62,52,45,32,32,32,51,27,16,30.24,30.15,3,0,5,0.00
2012-3-3,68,55,45,39,33,32,71,32,15,30.24,30.12,4,1,6,0.00
2012-3-4,69,58,49,34,32,32,52,31,17,30.15,29.94,4,0,4,0.00
2012-3-5,58,50,44,43,36,32,82,59,29,30.00,29.91,6,2,9,0.00
2012-3-6,54,49,45,46,34,32,85,38,19,29.94,29.85,7,3,11,0.00
2012-3-7,61,50,46,32,32,32,31,21,17,30.09,29.97,5,2,10,0.00
2012-3-8,67,53,43,32,32,32,52,30,15,30.21,30.06,4,1,5,0.00
2012-3-9,68,53,45,43,33,32,79,42,15,30.21,30.03,5,1,7,0.00
2012-3-10,60,51,45,41,35,32,80,55,35,30.03,29.91,4,1,6,0.00
2012-3-11,61,53,46,41,34,32,77,50,28,29.97,29.91,3,0,4,0.00
2012-3-12,65,53,43,45,36,32,85,53,20,29.94,29.85,3,0,4,0.00
2012-3-13,60,56,54,48,42,36,75,61,45,29.91,29.80,0,0,3,0.28
2012-3-14,60,57,56,54,50,46,84,77,63,30.03,29.88,0,0,3,1.80
2012-3-15,67,59,55,54,49,41,84,71,42,30.09,29.97,0,0,0,0.32
2012-3-16,65,56,49,54,48,39,86,75,48,29.97,29.65,4,0,4,1.84
2012-3-17,56,49,44,41,35,32,81,53,27,29.65,29.44,6,2,9,0.00
2012-3-18,52,47,44,32,32,32,53,35,26,29.85,29.56,7,3,10,0.00
2012-3-19,62,50,41,32,32,32,37,26,16,30.00,29.83,4,0,5,0.00
2012-3-20,66,57,50,39,33,32,58,29,20,30.15,30.00,3,0,4,0.00
2012-3-21,70,57,49,48,39,32,77,53,25,30.12,29.91,2,0,3,0.00
2012-3-22,56,52,46,48,38,32,79,51,25,29.97,29.88,5,2,10,0.00
2012-3-23,62,51,42,37,32,32,67,39,19,30.00,29.83,3,0,6,0.00
2012-3-24,54,49,45,43,36,32,76,58,23,29.85,29.77,4,0,5,1.28
2012-3-25,60,51,45,45,36,32,83,56,29,29.85,29.74,4,1,5,0.56
2012-3-26,65,54,44,36,33,32,73,40,18,30.06,29.85,3,0,5,0.00
2012-3-27,62,56,52,50,38,32,81,48,25,30.00,29.85,2,0,4,0.95
2012-3-28,67,59,52,52,44,34,83,61,30,30.12,29.91,2,0,4,0.00
2012-3-29,69,57,50,50,41,32,84,58,25,30.12,30.06,4,0,5,0.00
2012-3-30,71,61,55,48,41,32,76,51,25,30.09,29.91,2,0,3,0.00
2012-3-31,62,57,49,45,37,32,76,47,28,30.03,29.71,4,1,5,0.75
2012-4-1,57,51,47,39,32,32,65,35,25,30.27,30.03,5,3,8,0.00
2012-4-2,66,54,45,37,32,32,61,40,17,30.24,30.09,4,1,6,0.00
2012-4-3,67,56,49,46,37,32,81,50,23,30.15,30.06,6,1,8,0.00
2012-4-4,57,51,45,37,32,32,64,39,25,30.24,30.15,6,2,8,0.00
2012-4-5,55,48,42,32,32,32,43,32,26,30.21,30.12,6,2,9,0.00
2012-4-6,59,50,42,32,32,32,53,34,19,30.30,30.21,4,1,6,0.00
2012-4-7,68,54,44,34,32,32,60,30,15,30.21,30.06,4,1,6,0.00
2012-4-8,69,54,43,36,32,32,59,38,17,30.09,30.03,4,0,6,0.00
2012-4-9,73,57,47,46,35,32,79,43,14,30.03,29.88,3,0,4,0.00
2012-4-10,61,56,53,48,42,32,75,58,35,29.97,29.85,0,0,0,0.28
2012-4-11,68,58,52,48,38,32,84,51,24,30.03,29.85,2,0,4,0.56
2012-4-12,68,57,50,48,37,32,78,48,18,30.09,29.88,3,0,3,3.28
2012-4-13,57,52,48,45,36,32,80,51,31,29.94,29.77,5,2,8,1.12
2012-4-14,61,53,46,45,34,32,79,41,25,30.18,29.94,4,2,6,0.00
2012-4-15,64,55,50,46,39,32,80,57,29,30.30,30.18,5,1,9,0.00
2012-4-16,64,55,49,45,37,32,83,53,28,30.30,30.21,5,1,7,0.00
2012-4-17,66,57,51,48,41,32,81,58,29,30.27,30.15,4,1,6,0.00
2012-4-18,65,57,50,50,39,32,83,53,27,30.24,30.15,5,2,8,0.00
2012-4-19,68,61,54,54,44,37,89,58,34,30.24,30.12,4,1,5,0.00
2012-4-20,81,67,56,54,39,32,77,40,14,30.15,30.03,3,0,4,0.00
2012-4-21,81,68,57,36,32,32,38,27,15,30.06,29.91,4,0,5,0.00
2012-4-22,66,59,54,50,39,32,83,50,34,30.00,29.91,4,1,6,0.00
2012-4-23,73,62,54,52,40,32,85,49,22,30.09,29.94,2,0,3,0.00
2012-4-24,70,63,58,41,36,32,52,39,24,30.12,30.03,3,0,4,0.00
2012-4-25,73,64,58,52,40,32,76,45,22,30.09,29.85,3,0,5,0.08
2012-4-26,63,58,51,54,40,32,87,51,25,30.27,29.85,4,2,8,0.00
2012-4-27,67,56,47,36,32,32,57,36,22,30.30,30.21,4,1,8,0.00
2012-4-28,68,59,51,39,34,32,58,38,24,30.21,29.97,5,1,7,0.00
2012-4-29,74,61,50,48,37,32,74,44,21,30.03,29.94,4,0,6,0.00
2012-4-30,69,58,50,48,39,32,82,53,24,30.06,29.97,6,2,9,0.00
2012-5-1,61,54,47,52,37,32,87,51,26,30.03,29.94,5,2,8,0.00
2012-5-2,62,54,46,39,33,32,71,42,25,30.06,29.94,8,2,8,0.00
2012-5-3,74,60,50,50,37,32,75,45,22,30.18,30.03,2,0,4,0.00
2012-5-4,62,56,49,48,35,32,76,43,25,30.30,30.18,5,2,6,0.00
2012-5-5,70,59,49,36,32,32,54,31,15,30.30,30.12,5,1,6,0.00
2012-5-6,79,65,51,32,32,32,48,25,12,30.18,30.09,5,1,5,0.00
2012-5-7,80,65,51,41,33,32,53,29,12,30.12,30.03,5,1,8,0.00
2012-5-8,78,63,50,43,34,32,68,36,15,30.06,30.00,3,0,4,0.00
2012-5-9,68,58,50,41,34,32,69,41,24,30.06,29.97,4,0,5,0.00
2012-5-10,75,61,47,43,34,32,76,36,13,30.03,29.94,5,0,6,0.00
2012-5-11,75,62,49,37,32,32,56,32,16,30.06,29.94,3,0,5,0.00
2012-5-12,69,57,49,46,37,32,81,50,23,30.15,30.06,4,0,5,0.00
2012-5-13,68,58,50,46,37,32,81,48,24,30.18,30.12,4,0,5,0.00
2012-5-14,71,61,52,45,36,32,68,41,22,30.18,30.12,4,1,5,0.00
2012-5-15,63,56,51,46,39,32,79,55,33,30.18,30.09,5,1,8,0.00
2012-5-16,66,57,51,46,40,32,81,57,28,30.15,30.03,4,0,5,0.00
2012-5-17,61,55,50,46,37,32,74,52,34,30.06,29.94,8,2,12,0.00
2012-5-18,69,57,48,39,34,32,68,40,22,30.09,30.00,4,1,5,0.00
2012-5-19,71,59,47,43,34,32,75,39,22,30.09,30.03,2,0,6,0.00
2012-5-20,72,60,50,46,34,32,79,38,19,30.12,30.03,5,1,8,0.00
2012-5-21,68,59,52,54,43,34,86,60,30,30.21,30.09,4,2,10,0.00
2012-5-22,71,59,52,54,40,32,90,52,24,30.24,30.15,5,2,6,0.00
2012-5-23,67,59,52,43,35,32,68,38,23,30.18,30.06,5,2,10,0.00
2012-5-24,65,58,50,34,32,32,49,32,23,30.06,29.88,5,2,8,0.00
2012-5-25,65,56,48,37,33,32,62,39,24,30.00,29.88,5,2,10,0.00
2012-5-26,64,56,48,48,36,32,80,48,29,30.24,29.97,4,1,8,0.00
2012-5-27,66,57,51,48,37,32,82,49,24,30.33,30.24,4,2,9,0.00
2012-5-28,66,57,50,50,39,32,88,54,25,30.27,30.18,4,2,7,0.00
2012-5-29,67,57,49,43,36,32,76,48,25,30.27,30.21,4,1,6,0.00
2012-5-30,69,58,50,46,37,32,82,49,23,30.33,30.21,3,0,5,0.00
2012-5-31,85,64,50,43,34,32,69,35,13,30.27,30.09,4,0,5,0.00
2012-6-1,74,62,53,45,36,32,72,41,22,30.12,30.03,4,0,7,0.00
2012-6-2,67,58,52,50,42,36,90,59,33,30.24,30.06,6,3,8,0.00
2012-6-3,70,59,51,50,38,32,91,50,23,30.24,30.18,4,1,8,0.00
2012-6-4,67,59,52,54,40,32,80,51,26,30.42,30.18,4,1,7,0.00
2012-6-5,68,58,50,45,34,32,77,39,22,30.47,30.42,4,2,7,0.00
2012-6-6,75,59,49,34,32,32,47,32,16,30.42,30.30,4,1,7,0.00
2012-6-7,74,59,50,43,34,32,58,38,16,30.36,30.30,6,2,8,0.00
2012-6-8,70,59,51,39,33,32,62,34,19,30.33,30.24,5,2,11,0.00
2012-6-9,78,63,49,32,32,32,40,24,15,30.36,30.21,4,1,4,0.00
2012-6-10,89,72,56,32,32,32,24,15,10,30.27,30.21,4,1,7,0.00
2012-6-11,85,68,56,32,32,32,39,21,12,30.33,30.24,5,0,5,0.00
2012-6-12,76,64,52,45,34,32,71,35,15,30.36,30.27,6,2,7,0.00
2012-6-13,74,59,52,46,37,32,84,48,21,30.30,30.18,4,1,10,0.00
2012-6-14,72,59,50,41,34,32,68,37,22,30.24,30.18,4,1,6,0.00
2012-6-15,81,63,50,37,32,32,54,30,14,30.27,30.18,3,0,5,0.00
2012-6-16,100,73,55,37,33,32,48,24,10,30.30,30.21,4,0,6,0.00
2012-6-17,74,62,55,48,38,32,79,43,21,30.36,30.24,4,1,8,0.00
2012-6-18,71,58,53,50,40,32,82,53,23,30.42,30.33,4,1,6,0.00
2012-6-19,80,62,51,48,36,32,79,40,17,30.42,30.33,4,0,4,0.00
2012-6-20,79,65,53,41,35,32,63,35,17,30.36,30.30,3,0,5,0.00
2012-6-21,69,58,52,46,38,32,74,50,24,30.50,30.33,4,1,4,0.00
2012-6-22,79,62,52,50,36,32,74,41,20,30.50,30.42,3,0,4,0.00
2012-6-23,75,60,51,46,37,32,82,44,21,30.62,30.39,4,1,7,0.00
2012-6-24,75,61,51,46,37,32,79,43,18,17.92,17.92,4,1,6,0.00
2012-6-25,77,63,52,50,38,32,77,45,21,17.92,17.92,4,0,6,0.00
2012-6-26,75,63,52,48,36,32,80,41,18,17.92,17.92,4,1,7,0.00
2012-6-27,76,62,52,46,36,32,72,40,20,17.92,17.92,4,1,8,0.00
2012-6-28,74,61,54,52,42,32,83,53,22,17.92,17.92,4,1,6,0.00
2012-6-29,75,64,56,54,45,36,88,56,26,17.92,17.92,4,1,6,0.00
2012-6-30,75,64,58,57,49,41,86,61,32,17.92,17.92,4,0,6,0.00
2012-7-1,76,65,58,55,47,37,89,57,26,17.92,17.92,6,0,6,0.00
2012-7-2,71,61,54,50,41,32,76,50,25,17.92,17.92,5,1,8,0.00
2012-7-3,77,62,52,48,38,32,78,46,21,17.92,17.92,4,0,6,0.00
2012-7-4,73,62,53,50,39,32,83,47,23,17.92,17.92,6,1,9,0.00
2012-7-5,71,60,54,45,38,32,67,47,25,17.92,17.92,4,1,6,0.00
2012-7-6,77,61,54,46,39,32,73,47,21,17.92,17.92,3,0,4,0.00
2012-7-7,76,63,50,50,38,32,82,46,21,17.92,17.92,4,0,4,0.00
2012-7-8,69,60,54,48,42,34,79,57,28,17.92,17.92,4,1,7,0.00
2012-7-9,74,59,52,50,42,32,83,58,22,17.92,0.00,4,0,5,0.00
2012-7-10,83,63,52,50,39,32,82,48,16,29.77,0.00,3,0,4,0.00
2012-7-11,82,64,52,50,37,32,81,42,17,29.80,29.68,3,0,4,0.00
2012-7-12,71,60,52,50,39,32,84,50,25,29.77,29.68,3,0,4,0.00
2012-7-13,67,58,54,48,42,34,74,56,32,29.83,29.74,3,0,6,0.00
2012-7-14,67,59,54,50,42,34,81,58,33,29.85,29.77,4,1,6,0.00
2012-7-15,74,61,55,50,43,36,76,54,25,29.80,29.74,4,1,4,0.00
2012-7-16,74,61,55,52,43,32,84,56,22,29.83,29.71,3,0,4,0.00
2012-7-17,74,63,56,54,43,32,82,53,22,29.88,29.80,3,0,4,0.00
2012-7-18,70,62,56,50,39,32,76,45,23,29.91,29.85,4,1,9,0.00
2012-7-19,72,63,56,54,44,34,83,56,29,29.91,29.85,4,1,8,0.00
2012-7-20,75,64,58,52,42,34,77,48,23,29.97,29.85,6,1,8,0.00
2012-7-21,82,68,55,50,39,32,73,40,17,29.88,29.74,4,0,4,0.00
2012-7-22,75,64,55,50,40,32,80,47,22,29.80,29.74,3,0,6,0.00
2012-7-23,73,62,55,54,42,34,80,51,25,29.83,29.77,3,0,5,0.00
2012-7-24,70,62,55,52,42,34,82,53,28,29.85,29.80,3,0,5,0.00
2012-7-25,72,62,56,52,43,34,84,54,25,29.88,29.83,3,0,4,0.00
2012-7-26,71,61,56,48,42,32,77,53,25,29.88,29.83,4,0,6,0.00
2012-7-27,73,61,55,52,44,34,81,56,25,29.91,29.85,4,0,4,0.00
2012-7-28,68,61,55,52,44,36,84,60,32,29.94,29.85,4,1,8,0.00
2012-7-29,70,60,55,52,44,36,84,59,29,29.94,29.85,4,0,5,0.00
2012-7-30,80,65,55,52,41,32,80,48,20,29.88,29.77,4,0,6,0.00
2012-7-31,74,61,54,50,40,32,83,49,23,29.88,29.80,3,0,4,0.00
2012-8-1,70,60,53,52,42,32,90,56,25,29.94,29.85,3,0,4,0.00
2012-8-2,73,60,53,52,42,32,87,55,22,29.88,29.77,3,0,4,0.00
2012-8-3,67,59,55,50,44,34,84,61,31,29.80,29.71,4,0,6,0.00
2012-8-4,71,59,54,55,46,39,85,66,32,29.85,29.74,2,0,4,0.00
2012-8-5,73,63,58,55,46,34,85,57,26,29.97,29.83,4,1,7,0.00
2012-8-6,70,62,56,46,41,34,68,48,27,30.00,29.91,4,1,6,0.00
2012-8-7,69,61,54,54,42,34,86,54,28,29.94,29.85,4,1,5,0.00
2012-8-8,76,62,52,52,40,32,89,50,21,29.88,29.80,3,0,3,0.00
2012-8-9,76,63,52,50,40,32,84,47,21,29.83,29.71,3,0,4,0.00
2012-8-10,70,61,53,50,40,32,79,50,24,29.74,29.65,4,0,4,0.00
2012-8-11,73,61,51,52,41,32,90,55,22,29.71,29.62,3,0,4,0.00
2012-8-12,70,60,53,50,41,32,83,54,25,29.74,29.68,4,0,5,0.00
2012-8-13,74,63,53,50,39,32,81,46,21,29.74,29.65,4,0,4,0.00
2012-8-14,69,61,54,52,44,37,81,58,33,29.71,29.68,4,1,5,0.00
2012-8-15,69,61,57,52,44,36,83,57,29,29.77,29.68,3,0,4,0.00
2012-8-16,68,61,56,54,45,36,82,58,34,29.85,29.77,4,1,8,0.00
2012-8-17,68,61,56,54,45,37,86,60,33,29.88,29.80,5,1,8,0.00
2012-8-18,68,61,56,50,42,36,81,53,30,29.85,29.77,4,1,8,0.00
2012-8-19,69,60,54,52,44,36,84,60,29,29.85,29.80,3,0,5,0.00
2012-8-20,65,58,53,50,44,36,84,62,35,29.83,29.74,3,0,4,0.00
2012-8-21,65,58,54,52,46,36,85,66,34,29.83,29.74,6,0,6,0.00
2012-8-22,71,60,54,52,45,36,84,61,29,29.83,29.77,3,0,5,0.00
2012-8-23,69,61,54,54,45,34,84,60,32,29.85,29.74,3,0,4,0.00
2012-8-24,68,59,53,55,44,34,90,61,32,29.80,29.74,4,1,6,0.00
2012-8-25,67,59,54,50,43,34,84,60,30,29.77,29.71,3,0,5,0.00
2012-8-26,66,60,56,48,40,32,74,48,26,29.88,29.74,5,2,7,0.00
2012-8-27,73,64,57,55,46,37,89,56,29,29.94,29.83,4,1,6,0.00
2012-8-28,75,63,54,52,39,32,80,45,21,29.91,29.83,4,1,6,0.00
2012-8-29,78,64,52,52,38,32,81,41,15,29.83,29.68,4,0,5,0.00
2012-8-30,66,58,53,50,43,36,79,57,37,29.74,29.65,4,0,6,0.00
2012-8-31,69,60,56,52,43,32,81,56,26,29.85,29.74,4,1,5,0.00
2012-9-1,69,59,52,48,41,32,80,54,26,29.91,29.83,4,0,4,0.00
2012-9-2,76,61,50,57,42,32,89,55,20,29.85,29.77,4,0,6,0.00
2012-9-3,75,61,51,52,40,32,83,51,21,29.85,29.77,3,0,4,0.00
2012-9-4,65,58,50,52,44,34,86,64,33,29.91,29.83,4,0,5,0.00
2012-9-5,69,60,55,52,44,32,84,59,26,29.88,29.83,4,0,4,0.00
2012-9-6,66,59,53,52,41,34,81,55,31,29.88,29.83,4,0,8,0.00
2012-9-7,67,59,52,46,40,32,76,51,27,29.97,29.88,4,1,6,0.00
2012-9-8,64,59,55,48,41,34,77,54,35,29.94,29.83,4,2,10,0.00
2012-9-9,66,59,52,50,43,36,84,59,34,29.88,29.77,5,1,6,0.00
2012-9-10,73,62,54,52,43,32,85,56,22,29.83,29.71,3,0,5,0.00
2012-9-11,69,59,53,52,44,34,87,61,28,29.85,29.71,3,0,5,0.00
2012-9-12,69,60,54,54,46,37,88,63,32,29.97,29.83,3,0,4,0.00
2012-9-13,70,60,53,54,44,32,87,61,26,29.97,29.88,4,0,4,0.00
2012-9-14,67,59,54,52,45,36,86,63,33,30.00,29.88,3,0,7,0.00
2012-9-15,65,57,51,52,42,34,88,62,33,29.97,29.85,2,0,4,0.00
2012-9-16,68,56,50,52,42,32,88,63,27,29.91,29.83,4,0,5,0.00
2012-9-17,66,58,53,50,40,32,82,54,29,29.97,29.88,3,0,5,0.00
2012-9-18,64,58,53,50,39,34,81,52,33,30.00,29.88,4,1,6,0.00
2012-9-19,64,58,53,50,41,34,80,56,34,30.00,29.91,5,2,6,0.00
2012-9-20,64,57,51,48,41,34,81,58,32,29.94,29.85,6,1,7,0.00
2012-9-21,70,58,50,52,41,32,86,57,23,29.88,29.77,2,0,5,0.00
2012-9-22,72,59,51,50,39,32,82,52,21,29.83,29.74,3,0,5,0.00
2012-9-23,75,59,50,54,42,32,89,58,22,29.85,29.77,4,0,6,0.00
2012-9-24,68,60,53,52,44,32,86,59,27,29.85,29.77,4,0,4,0.00
2012-9-25,66,58,51,54,44,36,88,64,34,29.83,29.74,2,0,5,0.00
2012-9-26,66,58,52,48,43,34,81,60,33,29.80,29.74,3,0,3,0.00
2012-9-27,70,59,52,50,43,34,84,61,27,29.83,29.71,3,0,4,0.00
2012-9-28,67,58,51,52,46,37,89,68,34,29.85,29.74,3,0,4,0.00
2012-9-29,69,60,53,52,44,32,84,60,27,29.94,29.83,3,0,4,0.00
2012-9-30,84,65,51,54,40,32,84,46,13,29.94,29.83,4,1,4,0.00
2012-10-1,88,72,58,39,33,32,38,23,11,29.88,29.77,4,1,6,0.00
2012-10-2,92,76,65,32,32,32,26,16,10,29.80,29.68,4,0,5,0.00
2012-10-3,74,65,58,54,40,32,85,42,14,29.88,29.71,5,1,6,0.00
2012-10-4,69,61,57,54,45,34,88,58,28,30.00,29.88,3,0,4,0.00
2012-10-5,72,62,57,55,44,34,86,54,26,30.03,29.94,3,0,4,0.00
2012-10-6,68,60,54,55,44,32,92,59,23,29.94,29.83,4,1,9,0.00
2012-10-7,65,58,52,54,44,36,88,62,34,29.91,29.83,4,1,6,0.00
2012-10-8,66,59,53,54,46,37,85,64,34,29.91,29.85,3,0,5,0.00
2012-10-9,68,61,55,54,44,36,80,56,32,29.91,29.83,4,1,6,0.00
2012-10-10,66,59,54,54,45,36,87,62,33,29.85,29.77,3,0,6,0.00
2012-10-11,61,58,56,50,44,36,76,60,39,29.85,29.77,3,0,4,0.00
2012-10-12,68,60,54,50,40,32,79,53,25,30.09,29.83,2,0,4,0.00
2012-10-13,70,60,53,54,44,32,89,62,23,30.18,30.03,4,1,5,0.00
2012-10-14,70,62,57,57,50,41,91,70,35,30.09,29.94,4,0,5,0.00
2012-10-15,72,63,55,61,50,36,92,66,29,29.97,29.85,4,0,4,0.00
2012-10-16,71,64,60,61,51,41,87,64,40,29.88,29.74,5,1,7,0.00
2012-10-17,79,67,57,59,41,32,86,43,13,29.80,29.71,3,0,4,0.00
2012-10-18,82,70,60,59,37,32,82,30,14,29.91,29.74,2,0,4,0.00
2012-10-19,72,64,57,61,54,45,89,71,37,29.94,29.83,3,0,4,0.00
2012-10-20,66,58,52,55,45,36,88,63,36,29.83,29.68,4,1,7,0.00
2012-10-21,62,55,49,45,34,32,66,44,25,29.80,29.71,5,1,8,0.00
2012-10-22,63,57,53,54,43,32,86,63,34,29.80,29.59,2,0,5,1.56
2012-10-23,65,56,51,52,41,32,86,58,24,29.94,29.80,4,0,4,0.00
2012-10-24,65,58,52,54,40,32,84,54,30,30.06,29.88,0,0,3,0.20
2012-10-25,65,58,54,50,40,32,83,53,26,30.15,30.03,5,1,8,0.00
2012-10-26,69,60,52,46,35,32,64,36,15,30.09,29.94,3,0,5,0.00
2012-10-27,75,63,56,55,42,32,77,50,22,29.97,29.83,4,0,4,0.00
2012-10-28,73,61,55,55,47,36,87,63,25,29.91,29.83,4,0,4,0.00
2012-10-29,68,59,54,57,49,37,91,71,35,30.00,29.91,3,0,6,0.00
2012-10-30,67,58,52,57,50,39,91,76,37,29.97,29.85,3,0,5,0.00
2012-10-31,69,62,57,57,49,36,88,66,30,29.91,29.85,0,0,0,0.00
2012-11-1,67,61,55,61,49,32,86,67,40,29.91,29.85,4,0,5,0.24
2012-11-2,66,57,50,46,36,32,73,47,24,29.97,29.88,3,0,5,0.00
2012-11-3,71,60,54,52,40,32,84,51,23,30.03,29.94,3,0,5,0.00
2012-11-4,69,64,57,55,41,32,82,46,26,30.09,30.00,3,0,4,0.00
2012-11-5,76,66,58,54,40,32,77,42,21,30.03,29.91,4,0,4,0.00
2012-11-6,76,65,58,50,38,32,64,39,18,29.94,29.88,4,0,4,0.00
2012-11-7,64,58,54,54,47,39,83,67,44,29.94,29.80,6,1,7,0.00
2012-11-8,62,54,47,39,33,32,56,40,25,29.85,29.77,6,1,7,0.00
2012-11-9,54,49,43,36,32,32,67,46,26,29.85,29.77,4,1,8,0.00
2012-11-10,56,50,46,32,32,32,52,39,26,30.09,29.83,5,1,6,0.00
2012-11-11,57,50,44,43,33,32,77,43,22,30.21,30.09,3,0,5,0.00
2012-11-12,59,52,46,37,33,32,64,39,19,30.21,30.09,4,0,5,0.00
2012-11-13,65,56,50,34,32,32,49,30,18,30.15,29.97,4,1,5,0.00
2012-11-14,67,59,51,34,32,32,49,31,22,30.00,29.88,5,0,7,0.00
2012-11-15,68,58,51,48,36,32,82,45,20,29.91,29.83,2,0,2,0.00
2012-11-16,67,59,54,54,46,36,84,64,32,29.88,29.74,0,0,0,0.28
2012-11-17,66,60,55,57,51,43,90,73,45,29.85,29.68,3,0,3,1.59
2012-11-18,63,57,49,50,37,32,85,47,24,30.03,29.88,0,0,2,0.00
2012-11-19,68,59,52,43,34,32,55,38,22,30.12,30.03,0,0,0,0.00
2012-11-20,66,62,58,55,48,39,83,60,44,30.03,29.91,0,0,0,0.79
2012-11-21,64,58,51,57,44,32,88,61,36,30.06,29.91,3,1,4,0.96
2012-11-22,64,54,49,46,36,32,80,49,24,30.12,30.03,3,0,6,0.00
2012-11-23,65,56,50,46,38,32,86,53,23,30.12,30.03,5,1,6,0.00
2012-11-24,65,56,51,48,40,32,86,57,23,30.06,29.88,3,0,4,0.00
2012-11-25,62,55,51,54,46,37,88,74,38,29.88,29.80,0,0,0,0.00
2012-11-26,59,54,51,55,47,37,90,78,46,29.94,29.83,0,0,3,0.00
2012-11-27,66,58,52,52,40,32,84,56,26,30.00,29.85,0,0,0,0.00
2012-11-28,65,58,54,55,44,37,81,59,45,29.91,29.68,0,0,3,0.48
2012-11-29,64,60,55,55,45,36,76,57,38,29.91,29.74,2,0,4,0.00
2012-11-30,65,61,58,59,54,45,88,79,50,29.88,29.68,2,0,4,2.52
2012-12-1,69,62,58,59,52,45,87,72,43,29.91,29.77,0,0,0,1.91
2012-12-2,63,58,51,59,47,32,89,68,35,29.97,29.65,4,0,4,0.98
2012-12-3,61,54,49,50,40,32,87,60,28,30.09,29.97,0,0,0,0.00
2012-12-4,66,59,53,52,41,32,79,53,28,30.09,30.03,0,0,0,0.00
2012-12-5,66,62,59,61,56,50,86,81,62,30.03,29.97,3,0,4,0.00
2012-12-6,63,56,51,55,41,32,87,58,28,30.00,29.94,4,0,6,0.00
2012-12-7,60,52,48,50,41,32,88,67,34,30.03,29.91,2,0,4,0.00
2012-12-8,61,52,48,48,38,32,93,60,19,29.97,29.88,4,0,5,0.00
2012-12-9,66,55,48,43,35,32,78,44,18,30.03,29.91,5,0,8,0.00
2012-12-10,64,57,52,34,32,32,47,33,24,30.09,29.94,4,0,5,0.00
2012-12-11,59,54,49,52,40,32,86,61,41,29.97,29.74,4,0,4,0.00
2012-12-12,54,51,46,48,34,32,81,47,28,29.80,29.68,4,1,5,0.00
2012-12-13,52,47,44,39,33,32,82,47,26,29.80,29.71,5,1,7,0.00
2012-12-14,56,48,43,39,33,32,70,52,27,29.85,29.68,3,0,4,0.00
2012-12-15,52,48,44,45,39,32,85,72,49,29.91,29.83,0,0,0,0.08
2012-12-16,58,53,49,50,39,32,84,59,37,29.94,29.85,0,0,0,0.00
2012-12-17,62,55,48,55,43,32,91,64,38,29.91,29.85,4,1,5,0.80
2012-12-18,52,47,43,32,32,32,42,27,19,30.06,29.85,6,2,8,0.00
2012-12-19,51,44,38,32,32,32,44,27,19,30.18,30.03,2,0,4,0.00
2012-12-20,61,50,41,32,32,32,40,31,24,30.09,29.85,2,0,3,0.00
2012-12-21,57,54,52,48,39,32,75,54,35,29.85,29.74,2,0,3,0.00
2012-12-22,58,54,50,48,41,32,84,63,37,29.94,29.71,3,0,5,2.22
2012-12-23,58,54,50,54,47,41,88,79,68,29.94,29.74,3,0,6,1.27
2012-12-24,55,50,46,45,36,32,81,54,27,30.06,29.88,4,0,5,0.00
2012-12-25,53,49,44,50,39,32,90,71,49,30.00,29.62,5,0,11,0.00
2012-12-26,55,50,47,43,36,32,78,57,39,29.94,29.71,5,2,8,0.00
2012-12-27,53,48,45,36,32,32,68,44,27,30.00,29.91,4,0,5,0.00
2012-12-28,55,48,42,43,35,32,85,56,28,30.00,29.88,3,0,4,0.00
2012-12-29,55,48,44,37,33,32,76,48,27,29.91,29.85,6,1,6,0.00
2012-12-30,53,47,42,43,34,32,84,56,26,30.00,29.88,4,0,6,0.00
2012-12-31,53,46,39,32,32,32,52,35,18,30.12,30.00,2,0,4,0.00
2013-1-1,52,46,41,34,32,32,62,40,24,30.12,30.06,7,2,10,0.00